Location: Mountain View
(37.3861°N, 122.0839°W)
Time: 03:29:38
(UTC-07:00)

Tiangong - Pass Details

Date: 02 October 2021
Orbit: 382 x 385 km, 41.5° (Epoch: 17 October)

Event Time Altitude Azimuth Distance (km) Brightness Sun altitude
Exits shadow 05:06:20 27° 43° (NE) 781 3.1 -24.2°
Drops below altitude 10° 05:08:05 10° 65° (ENE) 1,378 4.9 -23.9°
Sets 05:10:17 0° 74° (ENE) 2,249 6.4 -23.4°
